Location: Bishopstone
(51.0167°N, 1.9000°W)
Time: 01:16:15
(UTC+00:00)

CZ-4C R/B - Pass Details

Date: 16 September 2019
Orbit: 654 x 1348 km, 63.4° (Epoch: 15 October)

Event Time Altitude Azimuth Distance (km) Brightness Sun altitude
Rises 21:14:03 0° 297° (WNW) 3,470 6.6 -25.6°
Reaches altitude 10° 21:16:46 10° 309° (NW) 2,639 5.8 -25.9°
Maximum altitude 21:22:08 29° 8° (N) 1,820 4.2 -26.6°
Enters shadow 21:27:42 12° 64° (ENE) 2,891 4.8 -27.2°
